Location: Ostrava
(49.8330°N, 18.2830°E)
Time: 23:41:18
(UTC+02:00)

Lacrosse 5 - Visible Passes

Search period start: 03 August 2015 00:00
Search period end: 13 August 2015 00:00
Orbit: 714 x 723 km, 57.0° (Epoch: 02 August)

Date Brightness Start Highest point End Pass type
(mag) Time Alt. Az. Time Alt. Az. Time Alt. Az.
03 Aug 2.2 00:10:20 10° WNW 00:15:12 47° SW 00:15:24 46° SW visible
03 Aug 2.8 21:33:46 10° WNW 21:38:38 44° NNE 21:43:30 10° E visible
03 Aug 1.8 23:16:50 10° WNW 23:21:54 74° SW 23:23:32 43° SE visible
04 Aug 3.8 01:00:52 10° W 01:02:41 16° WSW 01:02:41 16° WSW visible
04 Aug 1.9 22:23:25 10° NW 22:28:30 76° NNE 22:31:42 23° ESE visible
05 Aug 3.0 00:06:47 10° WNW 00:10:52 29° SW 00:10:52 29° SW visible
05 Aug 2.4 21:30:01 10° NW 21:34:59 56° NNE 21:39:56 10° ESE visible
05 Aug 2.3 23:13:06 10° WNW 23:17:58 47° SW 23:19:05 40° S visible
06 Aug 1.8 22:19:36 10° WNW 22:24:40 75° SW 22:27:21 28° SE visible
07 Aug 3.7 00:03:36 10° W 00:06:32 18° WSW 00:06:32 18° WSW visible
07 Aug 2.0 21:26:12 10° NW 21:31:16 75° NNE 21:35:41 14° ESE visible
07 Aug 2.9 23:09:32 10° WNW 23:13:55 30° SW 23:14:52 28° SSW visible
08 Aug 2.3 22:15:52 10° WNW 22:20:45 48° SW 22:23:14 26° SSE visible
09 Aug 1.9 21:22:22 10° WNW 21:27:27 76° SW 21:31:39 15° SE visible
09 Aug 3.6 23:06:20 10° W 23:09:47 18° SW 23:10:50 17° SW visible
10 Aug 3.1 22:12:17 10° WNW 22:16:42 30° SW 22:19:18 19° S visible
11 Aug 2.5 21:18:38 10° WNW 21:23:31 49° SW 21:27:50 13° SSE visible
12 Aug 3.8 22:09:04 10° W 22:12:34 18° SW 22:15:37 11° SSW visible
